Orbital Elements at Epoch 2459200.5 (2020-Dec-17.0) TDB
Reference: JPL 31 (heliocentric ecliptic J2000)
Element | Value | Uncertainty (1-sigma) | Units |
e | .1342613525752625 | 3.9118e-08 | |
a | 2.762441991931633 | 1.571e-08 | au |
q | 2.39155279368419 | 1.1109e-07 | au |
i | 14.21130762909271 | 4.2899e-06 | deg |
node | 42.00748575117694 | 1.6572e-05 | deg |
peri | 291.8337298251156 | 2.2605e-05 | deg |
M | 237.7085056348996 | 1.7139e-05 | deg |
tp | 2459770.181253999070 (2022-Jul-09.68125400) | 8.1456e-05 | TDB |
period | 1677.01975108248 4.59 | 1.4305e-05 3.916e-08 | d yr |
n | .2146665236158535 | 1.8312e-09 | deg/d |
Q | 3.133331190179077 | 1.7819e-08 | au |
|
| | Orbit Determination Parameters
Additional Information
|